| time (UTC) | temp C | wind direction | speed KPH | gust KPH | rain 1hr cm | rain 24hr cm | rain mn cm | humidity % | barometer mb |
| 20260510234545 | 16 | 154 | 1.6 | 6.4 | 0.00 | 0.36 | 0.13 | 81 | 1012.2 |
| 20260510233045 | 17 | 45 | 3.2 | 8.0 | 0.00 | 0.36 | 0.13 | 81 | 1011.8 |
| 20260510231547 | 16 | 25 | 3.2 | 6.4 | 0.00 | 0.36 | 0.13 | 83 | 1011.6 |
| 20260510230045 | 16 | 128 | 0.0 | 4.8 | 0.00 | 0.36 | 0.13 | 81 | 1011.7 |
| 20260510224558 | 17 | 103 | 1.6 | 3.2 | 0.00 | 0.58 | 0.13 | 81 | 1011.4 |
| 20260510223044 | 16 | 0 | 0.0 | 4.8 | 0.00 | 0.58 | 0.13 | 81 | 1011.3 |
| 20260510221546 | 16 | 81 | 1.6 | 6.4 | 0.00 | 0.58 | 0.13 | 80 | 1011.1 |
| 20260510220048 | 17 | 85 | 3.2 | 11.3 | 0.00 | 0.58 | 0.13 | 78 | 1011.1 |
| 20260510214601 | 17 | 78 | 1.6 | 11.3 | 0.00 | 0.76 | 0.13 | 80 | 1011.2 |
| 20260510213049 | 17 | 65 | 1.6 | 12.9 | 0.00 | 0.76 | 0.13 | 79 | 1011.3 |
| 20260510211547 | 17 | 96 | 3.2 | 9.7 | 0.00 | 0.76 | 0.13 | 75 | 1011.3 |
| 20260510210041 | 18 | 343 | 4.8 | 16.1 | 0.00 | 0.76 | 0.13 | 70 | 1011.2 |
| 20260510204547 | 17 | 317 | 3.2 | 11.3 | 0.03 | 0.81 | 0.13 | 74 | 1011.1 |
| 20260510203048 | 17 | 0 | 0.0 | 12.9 | 0.13 | 0.81 | 0.13 | 75 | 1010.9 |
| 20260510201547 | 16 | 324 | 6.4 | 16.1 | 0.13 | 0.81 | 0.13 | 82 | 1011.0 |
| 20260510200049 | 15 | 335 | 4.8 | 19.3 | 0.13 | 0.81 | 0.13 | 86 | 1011.1 |
| 20260510194553 | 15 | 297 | 12.9 | 29.0 | 0.10 | 0.89 | 0.10 | 81 | 1011.3 |
| 20260510193057 | 18 | 279 | 6.4 | 14.5 | 0.00 | 0.79 | 0.00 | 64 | 1010.8 |
| 20260510191541 | 18 | 157 | 8.0 | 20.9 | 0.00 | 0.79 | 0.00 | 63 | 1010.5 |
| 20260510190048 | 19 | 226 | 9.7 | 27.4 | 0.00 | 0.79 | 0.00 | 57 | 1010.2 |
| 20260510184556 | 19 | 171 | 11.3 | 29.0 | 0.00 | 1.07 | 0.00 | 58 | 1010.6 |
| 20260510183047 | 19 | 226 | 12.9 | 20.9 | 0.00 | 1.07 | 0.00 | 59 | 1010.6 |
| 20260510181548 | 20 | 196 | 9.7 | 17.7 | 0.00 | 1.07 | 0.00 | 61 | 1010.8 |
| 20260510180051 | 19 | 254 | 11.3 | 19.3 | 0.00 | 1.07 | 0.00 | 59 | 1011.2 |
| 20260510174550 | 18 | 232 | 6.4 | 16.1 | 0.00 | 1.32 | 0.00 | 63 | 1011.3 |
| 20260510173047 | 18 | 240 | 8.0 | 22.5 | 0.00 | 1.32 | 0.00 | 62 | 1011.4 |
| 20260510171546 | 18 | 208 | 8.0 | 14.5 | 0.00 | 1.32 | 0.00 | 63 | 1011.4 |
| 20260510170047 | 18 | 265 | 8.0 | 17.7 | 0.00 | 1.32 | 0.00 | 63 | 1011.4 |
| 20260510164541 | 18 | 175 | 4.8 | 22.5 | 0.00 | 1.47 | 0.00 | 67 | 1011.6 |
| 20260510163051 | 17 | 184 | 6.4 | 24.1 | 0.00 | 1.47 | 0.00 | 71 | 1011.7 |
| 20260510161548 | 17 | 217 | 4.8 | 12.9 | 0.00 | 1.47 | 0.00 | 73 | 1011.8 |
| 20260510160050 | 16 | 230 | 3.2 | 12.9 | 0.00 | 1.47 | 0.00 | 78 | 1011.7 |
| 20260510154542 | 16 | 260 | 6.4 | 12.9 | 0.00 | 1.47 | 0.00 | 82 | 1011.7 |
| 20260510153041 | 16 | 249 | 6.4 | 12.9 | 0.00 | 1.47 | 0.00 | 87 | 1012.0 |
| 20260510151542 | 16 | 203 | 8.0 | 16.1 | 0.00 | 1.47 | 0.00 | 88 | 1012.3 |
| 20260510150054 | 16 | 205 | 11.3 | 19.3 | 0.00 | 1.47 | 0.00 | 93 | 1012.4 |
| 20260510144547 | 16 | 228 | 3.2 | 11.3 | 0.00 | 1.47 | 0.00 | 100 | 1012.3 |
| 20260510143046 | 16 | 218 | 4.8 | 14.5 | 0.00 | 1.47 | 0.00 | 100 | 1012.2 |
| 20260510141552 | 16 | 227 | 8.0 | 12.9 | 0.00 | 1.47 | 0.00 | 100 | 1012.1 |
| 20260510140055 | 15 | 202 | 6.4 | 16.1 | 0.00 | 1.47 | 0.00 | 100 | 1012.2 |
| 20260510134550 | 15 | 273 | 8.0 | 16.1 | 0.00 | 1.47 | 0.00 | 100 | 1012.1 |
| 20260510133047 | 15 | 0 | 6.4 | 16.1 | 0.00 | 1.47 | 0.00 | 100 | 1012.0 |
| 20260510131547 | 15 | 217 | 1.6 | 12.9 | 0.00 | 1.47 | 0.00 | 100 | 1011.7 |
| 20260510130046 | 14 | 249 | 6.4 | 16.1 | 0.00 | 1.47 | 0.00 | 100 | 1012.1 |
| 20260510124553 | 14 | 242 | 6.4 | 16.1 | 0.00 | 1.47 | 0.00 | 100 | 1012.5 |
| 20260510123050 | 13 | 194 | 3.2 | 14.5 | 0.00 | 1.47 | 0.00 | 100 | 1012.3 |
| 20260510121549 | 13 | 237 | 4.8 | 19.3 | 0.00 | 1.47 | 0.00 | 100 | 1012.7 |
| 20260510120051 | 13 | 212 | 6.4 | 14.5 | 0.00 | 1.47 | 0.00 | 100 | 1012.2 |
| 20260510114545 | 13 | 223 | 4.8 | 14.5 | 0.00 | 1.47 | 0.00 | 100 | 1011.8 |
| 20260510113043 | 13 | 230 | 3.2 | 12.9 | 0.00 | 1.47 | 0.00 | 100 | 1011.9 |
| 20260510111540 | 13 | 250 | 6.4 | 14.5 | 0.00 | 1.47 | 0.00 | 100 | 1011.8 |
| 20260510110050 | 13 | 202 | 4.8 | 11.3 | 0.00 | 1.47 | 0.00 | 100 | 1011.4 |
| 20260510104541 | 13 | 206 | 3.2 | 12.9 | 0.00 | 1.47 | 0.00 | 100 | 1011.1 |
| 20260510103057 | 13 | 186 | 4.8 | 14.5 | 0.00 | 1.47 | 0.00 | 100 | 1011.2 |
| 20260510101550 | 13 | 191 | 3.2 | 9.7 | 0.00 | 1.47 | 0.00 | 100 | 1011.1 |
| 20260510100044 | 12 | 181 | 1.6 | 6.4 | 0.00 | 1.47 | 0.00 | 100 | 1011.1 |
| 20260510094545 | 12 | 120 | 3.2 | 6.4 | 0.00 | 1.47 | 0.00 | 100 | 1010.6 |
| 20260510093041 | 12 | 148 | 1.6 | 4.8 | 0.00 | 1.47 | 0.00 | 100 | 1010.9 |
| 20260510091547 | 12 | 195 | 0.0 | 3.2 | 0.00 | 1.47 | 0.00 | 100 | 1011.0 |
| 20260510090056 | 12 | 0 | 0.0 | 1.6 | 0.00 | 1.47 | 0.00 | 100 | 1011.0 |
| 20260510084545 | 12 | 0 | 0.0 | 0.0 | 0.00 | 1.47 | 0.00 | 100 | 1011.1 |
| 20260510083045 | 11 | 0 | 0.0 | 0.0 | 0.00 | 1.47 | 0.00 | 100 | 1011.0 |
| 20260510081546 | 11 | 0 | 0.0 | 1.6 | 0.00 | 1.47 | 0.00 | 100 | 1010.7 |
| 20260510080042 | 12 | 0 | 1.6 | 4.8 | 0.00 | 1.47 | 0.00 | 100 | 1010.8 |
| 20260510074547 | 11 | 0 | 0.0 | 1.6 | 0.00 | 1.47 | 0.00 | 100 | 1011.2 |
| 20260510073049 | 12 | 152 | 0.0 | 3.2 | 0.00 | 1.47 | 0.00 | 100 | 1010.8 |
| 20260510071547 | 11 | 0 | 0.0 | 4.8 | 0.00 | 1.47 | 0.00 | 100 | 1010.7 |
| 20260510070048 | 11 | 0 | 0.0 | 1.6 | 0.00 | 1.47 | 0.00 | 100 | 1010.7 |
| 20260510064541 | 11 | 0 | 0.0 | 4.8 | 0.00 | 1.47 | 0.00 | 100 | 1010.7 |
| 20260510063048 | 11 | 0 | 0.0 | 4.8 | 0.00 | 1.47 | 0.00 | 100 | 1010.8 |
| 20260510061557 | 11 | 0 | 0.0 | 3.2 | 0.00 | 1.47 | 0.00 | 100 | 1011.3 |
| 20260510060050 | 11 | 0 | 0.0 | 0.0 | 0.00 | 1.47 | 0.00 | 100 | 1011.5 |
| 20260510054557 | 11 | 0 | 0.0 | 3.2 | 0.00 | 1.47 | 0.00 | 100 | 1011.3 |
| 20260510053045 | 11 | 0 | 0.0 | 1.6 | 0.00 | 1.47 | 0.00 | 100 | 1011.5 |
| 20260510051541 | 11 | 0 | 0.0 | 1.6 | 0.00 | 1.47 | 0.00 | 100 | 1011.7 |
| 20260510050053 | 11 | 0 | 0.0 | 4.8 | 0.00 | 1.47 | 0.00 | 100 | 1011.6 |
| 20260510044548 | 11 | 0 | 0.0 | 4.8 | 0.00 | 1.47 | 0.00 | 100 | 1011.6 |
| 20260510043047 | 11 | 0 | 0.0 | 4.8 | 0.03 | 1.47 | 0.00 | 100 | 1011.6 |
| 20260510041601 | 10 | 0 | 0.0 | 3.2 | 0.03 | 1.47 | 0.00 | 100 | 1011.9 |
| 20260510040045 | 10 | 0 | 0.0 | 3.2 | 0.03 | 1.47 | 0.00 | 100 | 1011.9 |
| 20260510034556 | 10 | 0 | 0.0 | 4.8 | 0.03 | 1.47 | 1.47 | 100 | 1012.0 |
| 20260510033052 | 10 | 0 | 0.0 | 3.2 | 0.00 | 1.47 | 1.47 | 100 | 1012.2 |
| 20260510031553 | 10 | 61 | 0.0 | 1.6 | 0.00 | 1.47 | 1.47 | 100 | 1012.7 |
| 20260510030046 | 10 | 5 | 0.0 | 3.2 | 0.00 | 1.47 | 1.47 | 100 | 1012.6 |
| 20260510024604 | 10 | 0 | 0.0 | 0.0 | 0.03 | 1.47 | 1.47 | 100 | 1012.7 |
| 20260510023041 | 10 | 355 | 1.6 | 3.2 | 0.03 | 1.47 | 1.47 | 100 | 1012.6 |
| 20260510021548 | 10 | 355 | 3.2 | 6.4 | 0.05 | 1.47 | 1.47 | 100 | 1012.6 |
| 20260510020047 | 10 | 360 | 1.6 | 4.8 | 0.05 | 1.47 | 1.47 | 100 | 1012.7 |
| 20260510014608 | 10 | 9 | 0.0 | 3.2 | 0.03 | 1.45 | 1.45 | 100 | 1012.9 |
| 20260510013059 | 10 | 355 | 0.0 | 4.8 | 0.03 | 1.45 | 1.45 | 100 | 1012.9 |
| 20260510011544 | 10 | 0 | 0.0 | 3.2 | 0.03 | 1.42 | 1.42 | 100 | 1012.8 |
| 20260510010041 | 10 | 0 | 0.0 | 4.8 | 0.03 | 1.42 | 1.42 | 100 | 1012.7 |
| 20260510004555 | 10 | 19 | 1.6 | 6.4 | 0.03 | 1.42 | 1.42 | 100 | 1012.7 |
| 20260510003048 | 9 | 0 | 3.2 | 9.7 | 0.05 | 1.42 | 1.42 | 100 | 1012.5 |
| 20260510001546 | 9 | 80 | 3.2 | 9.7 | 0.08 | 1.40 | 1.40 | 100 | 1012.4 |
| 20260510000048 | 9 | 61 | 1.6 | 9.7 | 0.13 | 1.40 | 1.40 | 100 | 1012.2 |